Weather History for Vicksburg, MS

Change the Weather History Date:

Tuesday, May 6, 2014

  Actual Average Record
Temperature  
Mean Temperature 69 °F 70 °F  
Max Temperature 84 °F 81 °F 93 °F (1952)
Min Temperature 53 °F 59 °F 41 °F (1957)
Degree Days  
Heating Degree Days 0 1  
Month to date heating degree days 11 6  
Since 1 July heating degree days 2876 2347  
Cooling Degree Days 4 6  
Month to date cooling degree days 18 32  
Year to date cooling degree days 138 150  
Growing Degree Days 20 (Base 50)    
Moisture  
Dew Point 59 °F    
Average Humidity 68    
Maximum Humidity 93    
Minimum Humidity 43    
Precipitation  
Precipitation 0.00 in 0.17 in 2.28 in (1960)
Month to date precipitation 0.00 1.06  
Year to date precipitation 24.40 21.40  
Sea Level Pressure  
Sea Level Pressure 29.95 in    
Wind  
Wind Speed 7 mph (South)    
Max Wind Speed 18 mph    
Max Gust Speed 24 mph    
Visibility 10 miles    
Events      
T = Trace of Precipitation, MM = Missing Value Source: NWS Daily Summary

Daily Weather History Graph

Daily Weather History Graph

Search for Another Location

Airport:

Trip Planner

Search our weather history database for the weather conditions in past years. The results will help you decide how hot, cold, wet, or windy it might be!

Date:

Astronomy

May. 06, 2014 Rise Set
Actual Time 6:13 AM CDT 7:48 PM CDT
Civil Twilight 5:46 AM CDT 8:15 PM CDT
Nautical Twilight 5:14 AM CDT 8:47 PM CDT
Astronomical Twilight 4:41 AM CDT 9:20 PM CDT
Moon 12:25 PM CDT (5/6) 1:11 AM CDT (5/6)
Length of Visible Light 14h 28m
Length of Day
13h 35m
Waxing Crescent, 46% of the Moon is Illuminated
May 6
Waxing Crescent
May 6
First Quarter
May 14
Full
May 21
Last Quarter
May 28
New

Hourly Weather History & Observations

Time (CDT) Temp. Heat Index Dew Point Humidity Pressure Visibility Wind Dir Wind Speed Gust Speed Precip Events Conditions
12:53 AM 66.0 °F - 55.9 °F 70% 29.97 in 10.0 mi SSW 4.6 mph - N/A   Clear
1:53 AM 64.0 °F - 55.9 °F 75% 29.96 in 10.0 mi SSW 3.5 mph - N/A   Clear
2:53 AM 63.0 °F - 55.9 °F 78% 29.95 in 10.0 mi SSW 4.6 mph - N/A   Clear
6:49 AM 57.2 °F - 55.4 °F 94% 29.97 in 3.0 mi Calm Calm - N/A   Overcast
7:26 AM 62.1 °F - 60.1 °F 93% 29.98 in 9.0 mi South 5.8 mph - N/A   Scattered Clouds
9:06 AM 71.1 °F - 60.1 °F 68% 30.00 in 10.0 mi Variable 6.9 mph - N/A   Mostly Cloudy
9:53 AM 72.0 °F - 60.1 °F 66% 30.01 in 10.0 mi SW 8.1 mph - N/A   Scattered Clouds
10:53 AM 75.0 °F - 59.0 °F 57% 30.00 in 10.0 mi South 10.4 mph 18.4 mph N/A   Partly Cloudy
11:53 AM 78.1 °F - 59.0 °F 52% 29.99 in 10.0 mi South 10.4 mph 21.9 mph N/A   Clear
12:53 PM 79.0 °F - 57.9 °F 48% 29.98 in 10.0 mi South 16.1 mph 21.9 mph N/A   Clear
1:53 PM 82.0 °F 82.1 °F 59.0 °F 45% 29.96 in 10.0 mi SSW 9.2 mph 24.2 mph N/A   Clear
2:53 PM 82.9 °F 83.2 °F 60.1 °F 46% 29.94 in 10.0 mi South 12.7 mph 19.6 mph N/A   Clear
3:53 PM 84.0 °F 83.8 °F 59.0 °F 43% 29.92 in 10.0 mi South 10.4 mph 19.6 mph N/A   Clear
4:53 PM 82.9 °F 82.8 °F 59.0 °F 44% 29.90 in 10.0 mi SSW 9.2 mph 17.3 mph N/A   Clear
5:53 PM 82.0 °F 82.1 °F 59.0 °F 45% 29.90 in 10.0 mi SSW 8.1 mph - N/A   Clear
6:53 PM 80.1 °F 80.6 °F 57.9 °F 47% 29.90 in 10.0 mi South 9.2 mph - N/A   Clear
7:53 PM 77.0 °F - 59.0 °F 54% 29.90 in 10.0 mi South 5.8 mph - N/A   Clear
8:53 PM 71.1 °F - 59.0 °F 66% 29.91 in 10.0 mi South 4.6 mph - N/A   Clear
9:53 PM 69.1 °F - 59.0 °F 70% 29.92 in 10.0 mi South 4.6 mph - N/A   Clear
10:53 PM 66.9 °F - 60.1 °F 79% 29.94 in 10.0 mi South 4.6 mph - N/A   Clear
11:53 PM 66.9 °F - 60.1 °F 79% 29.94 in 10.0 mi South 8.1 mph - N/A   Clear